Regional Weather Roundup
Issued by NWS Charleston, WV

Home | Current Version | Previous Version | Text Only | Print | Product List | Glossary On
Versions: 1 2 3 4 5 6 7 8 9 10 11 12 13 14 15 16 17 18 19 20 21 22 23 24 25 26 27 28 29 30 31 32 33 34 35 36 37 38 39 40 41 42 43 44 45 46 47 48 49 50
000
ASUS41 KRLX 311210
RWRRLX
West Virginia Regional Weather Roundup
National Weather Service Charleston WV
800 AM EDT FRI JUL 31 2015

Note: "fair" indicates few or no clouds below 12,000 feet with no
significant weather and/or obstructions to visibility.

WVZ003-311300-
Northern Panhandle of West Virginia

CITY           SKY/WX    TMP DP  RH WIND       PRES   REMARKS
WHEELING       SUNNY     66  59  78 CALM      30.03R
$$

WVZ009-311300-
Northwest West Virginia

CITY           SKY/WX    TMP DP  RH WIND       PRES   REMARKS
PARKERSBURG    SUNNY     65  60  84 CALM      30.07R
$$

WVZ006-311300-
Western West Virginia

CITY           SKY/WX    TMP DP  RH WIND       PRES   REMARKS
HUNTINGTON     SUNNY     63  62  97 CALM      30.07R
$$

WVZ015-311300-
West Central West Virginia

CITY           SKY/WX    TMP DP  RH WIND       PRES   REMARKS
CHARLESTON     MOSUNNY   63  62  97 CALM      30.07R
$$

WVZ022-031-311300-
North Central West Virginia

CITY           SKY/WX    TMP DP  RH WIND       PRES   REMARKS
CLARKSBURG     SUNNY     65  61  87 S3        30.05R
MORGANTOWN     SUNNY     67  57  70 CALM      30.06R
$$

WVZ025-035-042-045-311300-
Southern West Virginia

CITY           SKY/WX    TMP DP  RH WIND       PRES   REMARKS
BECKLEY        SUNNY     63  58  83 CALM      30.13R
LOGAN          FOG       63  63 100 CALM      30.07R VSB<1/4
BLUEFIELD      SUNNY     65  57  75 W5        30.15R
LEWISBURG      FOG       58  56  94 CALM      30.12R VSB 1/2
$$

WVZ047-311300-
Northern Mountains of West Virginia

CITY           SKY/WX    TMP DP  RH WIND       PRES   REMARKS
ELKINS         SUNNY     60  57  89 CALM      30.10S
$$

WVZ052-311300-
Eastern Panhandle of West Virginia

CITY           SKY/WX    TMP DP  RH WIND       PRES   REMARKS
MARTINSBURG    SUNNY     71  60  68 SW3       29.98R
PETERSBURG     SUNNY     63  60  93 CALM      30.05R
$$


USA.gov is the U.S. government's official web portal to all federal, state and local government web resources and services.